Regional Weather Roundup
Issued by NWS

Home | Current Version | Previous Version | Text Only | Print | Product List | Glossary On
Versions: 1 2 3 4 5 6 7 8 9 10 11 12 13 14 15 16 17 18 19 20 21 22 23 24 25 26 27 28 29 30 31 32 33 34 35 36 37 38 39 40 41 42 43 44 45 46 47 48 49 50
000
ASUS43 KFSD 250902
RWRSD

WEATHER ROUNDUP FOR SOUTH DAKOTA
NATIONAL WEATHER SERVICE SIOUX FALLS SD
400 AM CDT SAT OCT 25 2014

NOTE: "FAIR" INDICATES FEW OR NO CLOUDS BELOW 12,000 FEET WITH NO
SIGNIFICANT WEATHER AND/OR OBSTRUCTIONS TO VISIBILITY.


SDZ001>005-009-010-012>017-251000-
NORTHWEST AND NORTH CENTRAL SOUTH DAKOTA

CITY           SKY/WX    TMP DP  RH WIND       PRES   REMARKS
BUFFALO          N/A     43  31  62 W3        30.08R
FAITH            N/A     46  32  58 NW6       30.14R
MOBRIDGE       MOCLDY    51  39  63 N5        30.08S
$$

SDZ012>016-024>037-041>051-057-063-072>074-251000-
SOUTHWEST AND SOUTH CENTRAL SOUTH DAKOTA

CITY           SKY/WX    TMP DP  RH WIND       PRES   REMARKS
RAPID CTY ARPT CLEAR     44  32  62 NW9       30.16R
PIERRE         PTCLDY    47  37  68 NW10      30.11R
CUSTER         CLEAR     39  30  70 NE5       30.21R
ELLSWORTH AFB  CLEAR     39  33  78 NW7       30.15F
PHILIP         CLEAR     37  32  82 W6        30.14R
PINE RIDGE     CLEAR     32  29  88 CALM      30.16R
SPEARFISH      FAIR      37  32  81 SE7       30.17S
WINNER         FAIR      49  35  58 SW3       30.12S
$$

SDZ004>011-016>023-039-040-251000-
NORTHEAST SOUTH DAKOTA

CITY           SKY/WX    TMP DP  RH WIND       PRES   REMARKS
ABERDEEN       CLOUDY    54  34  46 NW10      30.08R
WATERTOWN      CLOUDY    53  36  52 NW8       30.07R
SISSETON         N/A     56  33  42 NW9       30.04S
$$

SDZ017-020-022-023-036>040-048>070-251000-
SOUTHEAST SOUTH DAKOTA

CITY           SKY/WX    TMP DP  RH WIND       PRES   REMARKS
SIOUX FALLS    PTCLDY    46  41  82 NW3       30.06R
HURON          CLOUDY    48  39  71 N6        30.08S
CHAMBERLAIN    CLEAR     41  33  74 W3        30.11S
MITCHELL       PTCLDY    49  40  71 W6        30.09R
YANKTON        CLEAR     46  39  76 NW9       30.08R
$$

ABBREVIATIONS USED IN REMARKS
   TC - TEMPERATURE IN CELSIUS
  WCI - WIND CHILL INDEX
   HX - HEAT INDEX
  VSB - VISIBILITY




USA.gov is the U.S. government's official web portal to all federal, state and local government web resources and services.